Probability
0 0 3 3 0 0 0 0 0 0 0 0 0 0 0 0 0 0 0 0 0 0 0 0 0 0 0 0 0 0 0 0 0 0 0 0 0 0
0 0 0 3 0 0 0 0 0 0 0 0 0 0 0 0 0 0 0 0 0 0 0 0 0 0 0 0 0 0 0 0 0 0 0 0 0 0
0 0 0 0 0 0 0 0 0 0 0 0 0 0 0 0 0 0 0 0 0 0 0 0 0 0 0 0 0 0 0 0 0 0 0 0 0 0
0 0 0 0 0 0 0 0 0 0 0 0 0 0 0 0 0 0 0 0 0 0 0 0 0 0 0 0 0 0 0 0 0 0 0 0 0 0
0 0 0 0 0 0 0 0 0 0 0 0 0 0 0 0 0 0 0 0 0 0 0 0 0 0 0 0 0 0 0 0 0 0 0 0 0 0
0 0 0 0 0 0 0 0 0 0 0 0 0 0 0 0 0 0 0 0 0 0 0 0 0 0 0 0 0 0 0 0 0 0 0 0 0 0
0 0 0 0 0 0 0 0 0 0 0 0 0 0 0 0 0 0 0 0 0 0 0 0 0 0 0 0 0 0 0 0 0 0 0 0 0 0
0 0 0 0 0 0 0 0 0 0 0 0 0 0 0 0 0 0 0 0 0 0 0 0 0 0 0 0 0 0 0 0 0 0 0 0 0 0
0 0 0 0 0 0 0 0 0 0 0 0 0 0 0 0 0 0 0 0 0 0 0 0 0 0 0 0 0 0 0 0 0 0 0 0 0 0
0 0 0 0 0 0 0 0 0 0 0 0 0 0 0 0 0 0 0 0 0 0 0 0 0 0 0 0 0 0 0 0 0 0 0 0 0 0
0 0 0 0 0 0 0 0 0 0 0 0 0 0 0 0 0 0 0 0 0 0 0 0 0 0 0 0 0 0 0 0 0 0 0 0 0 0
0 0 0 0 0 0 0 0 0 0 0 0 0 0 0 0 0 0 0 0 0 0 0 0 0 0 0 0 0 0 0 0 0 0 0 0 0 0
0 0 0 0 0 0 0 0 0 0 0 0 0 0 0 0 0 0 0 0 0 0 0 0 0 0 0 0 0 0 0 0 0 0 0 0 0 0
0 0 0 0 0 0 0 0 0 0 0 0 0 0 0 0 0 0 0 0 0 0 0 0 0 0 0 0 0 0 0 0 0 0 0 0 0 0
0 0 0 0 0 0 0 0 0 0 0 0 0 0 0 0 0 0 0 0 0 0 0 0 0 0 0 0 0 0 0 0 0 0 0 0 0 0
0 0 0 0 0 0 0 0 0 0 0 0 0 0 0 0 0 0 0 0 0 0 0 0 0 0 0 0 0 0 0 0 0 0 0 0 0 0
0 0 0 0 0 0 0 0 0 0 0 0 0 0 0 0 0 0 0 0 0 0 0 0 0 0 0 0 0 0 0 0 0 0 0 0 0 0
0 0 0 0 0 0 0 0 0 0 0 0 0 0 0 0 0 0 0 0 0 0 0 0 0 0 0 0 0 0 0 0 0 0 0 0 0 0
0 0 0 0 0 0 0 0 0 0 0 0 0 0 0 0 0 0 0 0 0 0 0 0 0 0 0 0 0 0 0 0 0 0 0 0 0 0
0 0 0 0 0 0 0 0 0 0 0 0 0 0 0 0 0 0 0 0 0 0 0 0 0 0 0 0 0 0 0 0 0 0 0 0 0 0
0 0 0 0 0 0 0 0 0 0 0 0 0 0 0 0 0 0 0 0 0 0 0 0 0 0 0 0 0 0 0 0 0 0 0 0 0 0
0 0 0 0 0 0 0 0 0 0 0 0 0 0 0 0 0 0 0 0 0 0 0 0 0 0 0 0 0 0 0 0 0 0 0 0 0 0
0 0 0 0 0 0 0 0 0 0 0 0 0 0 0 0 0 0 0 0 0 0 0 0 0 0 0 0 0 0 0 0 0 0 0 0 0 0
Height
5730 5731 5732 5734 5735 5737 5737 5737 5737 5738 5738 5738 5737 5735 5734 5733 5731 5730 5728 5726 5723 5721 5718 5715 5711 5708 5705 5701 5697 5694 5691 5689 5686 5683 5681 5678 5676 5674
5715 5717 5718 5720 5722 5723 5724 5724 5725 5725 5725 5725 5724 5724 5722 5721 5720 5718 5717 5715 5712 5709 5707 5704 5700 5697 5693 5690 5686 5684 5681 5678 5676 5674 5671 5669 5667 5666
5702 5703 5705 5706 5708 5709 5710 5711 5712 5712 5713 5713 5712 5711 5710 5709 5708 5707 5705 5703 5701 5698 5695 5692 5689 5686 5682 5679 5676 5673 5671 5668 5666 5664 5662 5660 5658 5657
5688 5689 5691 5692 5694 5695 5696 5697 5698 5699 5699 5700 5700 5699 5698 5697 5696 5694 5693 5691 5689 5686 5684 5681 5678 5675 5671 5668 5666 5663 5661 5658 5657 5654 5652 5651 5649 5648
5674 5676 5677 5678 5680 5681 5682 5684 5685 5686 5686 5687 5687 5686 5686 5685 5684 5682 5681 5679 5677 5675 5672 5669 5667 5664 5661 5658 5655 5653 5651 5649 5647 5645 5643 5641 5640 5639
5661 5662 5663 5664 5666 5667 5669 5670 5672 5673 5673 5673 5673 5673 5673 5672 5671 5670 5669 5667 5665 5663 5660 5658 5655 5653 5650 5647 5645 5643 5641 5639 5637 5635 5633 5632 5631 5630
5647 5647 5648 5650 5652 5653 5655 5657 5658 5660 5660 5660 5660 5660 5660 5659 5659 5658 5656 5655 5652 5651 5649 5646 5644 5642 5639 5637 5635 5633 5631 5629 5627 5626 5624 5623 5622 5621
5633 5634 5636 5637 5639 5640 5642 5643 5644 5646 5647 5647 5647 5647 5647 5647 5646 5645 5644 5643 5641 5639 5637 5635 5633 5631 5629 5627 5625 5623 5621 5619 5618 5616 5615 5613 5613 5612
5620 5621 5623 5624 5626 5627 5628 5630 5631 5632 5634 5635 5634 5635 5635 5634 5634 5633 5631 5630 5629 5627 5625 5624 5622 5620 5618 5616 5614 5613 5611 5609 5608 5607 5605 5604 5603 5603
5608 5609 5611 5612 5613 5614 5616 5617 5618 5619 5620 5622 5622 5622 5622 5622 5621 5620 5619 5618 5617 5615 5614 5613 5611 5609 5607 5606 5604 5603 5601 5600 5598 5597 5596 5595 5594 5594
5595 5597 5598 5600 5601 5602 5604 5604 5606 5607 5607 5609 5609 5610 5609 5609 5609 5608 5607 5606 5605 5604 5603 5602 5600 5598 5597 5595 5594 5592 5591 5590 5589 5588 5587 5586 5585 5585
5583 5585 5586 5588 5589 5590 5591 5592 5594 5595 5596 5597 5597 5597 5597 5597 5597 5596 5596 5595 5594 5593 5591 5590 5589 5588 5587 5585 5584 5583 5581 5580 5579 5578 5577 5577 5576 5576
5571 5573 5574 5576 5577 5578 5579 5580 5582 5583 5583 5584 5585 5585 5585 5585 5585 5584 5584 5583 5582 5582 5581 5579 5578 5577 5576 5575 5574 5573 5572 5571 5570 5569 5568 5567 5567 5567
5560 5561 5562 5564 5565 5566 5568 5569 5569 5571 5572 5573 5573 5574 5574 5574 5573 5573 5573 5572 5571 5570 5569 5568 5568 5567 5566 5565 5564 5563 5562 5561 5560 5559 5558 5558 5557 5557
5547 5549 5551 5552 5553 5554 5556 5557 5558 5559 5560 5561 5562 5562 5562 5562 5562 5562 5561 5561 5560 5559 5558 5557 5557 5556 5555 5555 5554 5553 5552 5551 5551 5550 5549 5548 5547 5547
5535 5537 5538 5540 5541 5543 5544 5546 5547 5548 5549 5549 5550 5550 5550 5550 5550 5550 5550 5549 5549 5548 5547 5546 5546 5545 5545 5544 5543 5542 5542 5541 5541 5540 5539 5538 5537 5537
5523 5525 5526 5528 5530 5532 5533 5534 5535 5536 5537 5538 5538 5538 5539 5539 5539 5539 5539 5538 5538 5537 5536 5536 5535 5534 5534 5533 5533 5532 5531 5530 5530 5530 5529 5528 5527 5526
5511 5513 5515 5517 5519 5520 5522 5523 5524 5525 5525 5526 5526 5527 5527 5527 5527 5527 5527 5527 5526 5526 5525 5524 5524 5523 5523 5522 5522 5521 5520 5520 5519 5518 5518 5517 5516 5515
5500 5502 5504 5506 5507 5509 5510 5511 5512 5513 5514 5515 5515 5516 5516 5516 5516 5516 5516 5515 5515 5514 5514 5513 5513 5512 5512 5511 5511 5509 5509 5508 5508 5507 5506 5506 5505 5504
5489 5491 5493 5494 5496 5498 5499 5500 5501 5502 5503 5503 5504 5504 5504 5505 5505 5505 5504 5504 5504 5503 5503 5502 5501 5501 5500 5500 5500 5498 5497 5497 5496 5496 5495 5494 5493 5492
5478 5480 5482 5484 5485 5487 5488 5489 5490 5491 5492 5492 5493 5493 5493 5493 5493 5493 5493 5493 5492 5492 5491 5491 5490 5489 5489 5489 5488 5487 5486 5485 5484 5484 5483 5482 5482 5481
5468 5470 5471 5473 5475 5476 5477 5479 5480 5480 5481 5482 5482 5482 5482 5482 5482 5482 5481 5481 5481 5480 5480 5479 5478 5478 5477 5477 5476 5475 5474 5473 5472 5471 5470 5470 5469 5469
5458 5460 5461 5463 5465 5466 5467 5468 5469 5470 5471 5471 5472 5472 5472 5471 5471 5470 5470 5469 5469 5468 5468 5467 5467 5466 5466 5465 5464 5464 5462 5461 5460 5459 5458 5457 5457 5456
Wind_Speed
52 52 52 52 52 50 48 49 48 48 46 45 47 46 45 45 45 44 45 45 46 46 47 49 49 50 50 50 49 47 45 43 41 40 38 37 36 35
53 54 52 52 51 50 49 49 48 46 44 45 46 46 45 45 45 45 45 45 46 47 49 49 49 49 50 49 47 45 44 42 39 38 37 36 35 34
53 53 53 53 52 50 50 48 47 47 46 45 45 45 46 46 46 46 47 48 49 49 49 49 49 49 49 47 45 44 42 40 39 38 37 36 35 33
52 52 52 52 51 51 50 49 48 48 47 46 47 47 47 47 47 47 48 49 49 49 48 48 48 48 47 45 44 42 40 39 38 37 36 36 35 33
49 49 50 50 49 49 48 47 46 46 45 46 46 46 48 48 48 48 49 48 48 48 48 47 47 46 45 44 42 40 38 38 37 36 36 35 34 32
48 48 48 48 47 48 47 46 45 45 44 45 46 47 48 48 48 47 47 47 47 47 47 46 46 45 43 41 40 39 38 37 37 36 35 34 33 31
47 46 45 45 45 44 44 44 45 45 45 46 46 46 46 46 46 46 46 46 46 46 46 46 45 43 41 40 39 38 37 36 35 35 34 33 31 30
43 42 42 42 43 44 44 44 45 45 46 45 45 45 45 45 44 45 45 45 46 45 45 44 43 42 40 39 38 37 36 35 34 34 33 32 30 30
41 41 41 42 42 43 44 44 44 44 44 44 44 44 44 43 44 44 45 45 45 44 43 42 41 40 38 38 37 36 36 35 34 33 32 31 30 29
40 40 41 42 44 45 44 44 44 43 43 44 44 44 44 44 45 45 44 44 43 42 41 41 40 39 38 37 36 36 35 34 33 32 31 30 30 29
40 40 41 42 42 43 44 44 44 44 43 43 44 44 44 44 44 44 43 42 41 41 40 39 39 38 37 36 35 35 34 33 32 32 31 30 29 29
40 40 41 41 41 42 43 43 44 44 44 43 42 43 43 43 43 42 42 41 41 40 40 39 38 37 36 35 35 34 33 33 32 32 31 30 30 29
40 41 40 40 41 42 42 42 43 43 42 42 41 41 41 41 41 40 40 40 39 39 39 38 37 36 35 34 34 33 33 32 32 31 31 30 29 29
40 40 39 40 40 40 40 41 41 41 41 41 41 40 40 40 40 40 39 39 39 39 38 37 36 35 34 34 34 33 33 32 31 31 30 29 29 29
39 39 39 39 39 39 39 40 40 40 40 40 39 39 39 39 40 39 39 39 39 38 37 36 35 35 34 34 34 33 33 32 31 31 30 30 30 31
38 38 38 39 39 38 39 39 39 39 39 39 39 39 39 39 39 39 38 38 37 37 36 36 35 35 34 34 33 33 33 32 32 31 31 31 32 32
37 37 37 37 38 39 39 40 39 39 39 39 39 39 39 39 38 38 38 37 36 36 36 36 35 35 34 34 34 34 34 33 33 32 32 32 32 32
37 37 37 38 37 37 38 38 38 38 38 38 38 38 38 38 37 37 37 36 36 36 36 35 35 35 35 35 35 35 35 34 34 33 32 32 33 33
36 36 36 35 35 36 36 37 37 37 37 37 37 37 37 37 37 37 36 36 36 35 35 35 35 35 35 35 34 35 35 34 34 34 34 33 33 33
34 34 35 35 35 35 35 36 36 36 37 37 37 36 36 37 36 36 36 36 35 35 35 35 35 35 35 34 34 35 35 34 34 34 34 34 34 34
33 33 33 33 34 34 34 34 34 34 35 35 35 35 35 36 36 36 36 36 35 35 36 36 35 35 35 34 34 35 35 35 35 35 35 34 34 34
32 32 32 32 32 33 33 33 33 33 33 34 34 34 35 35 35 35 36 36 36 36 36 36 36 35 35 35 34 35 35 36 35 35 35 35 35 34
30 30 30 31 31 32 32 32 32 33 33 34 34 34 34 34 34 35 35 36 36 36 36 36 35 35 35 35 35 36 36 36 36 36 36 37 37 36
Wind_Direction
266 267 268 268 268 269 270 271 272 275 275 275 275 276 278 278 279 280 282 284 286 289 291 292 293 293 294 295 296 296 296 295 294 294 293 292 290 289
265 266 266 265 266 266 268 270 270 271 271 274 274 274 276 277 277 279 282 285 287 289 291 292 292 293 295 295 295 295 294 293 293 293 292 291 289 289
264 264 264 265 265 265 266 267 268 269 271 273 273 274 274 275 278 281 284 286 288 289 290 291 292 293 294 294 294 294 292 291 291 292 291 290 288 287
264 265 266 265 265 265 266 266 267 267 269 271 272 273 275 277 279 282 284 286 287 288 290 291 292 292 293 294 293 292 291 291 291 290 290 289 288 285
264 264 264 264 264 265 265 266 266 267 269 271 272 273 275 276 279 282 283 284 285 286 288 289 290 292 292 292 292 291 290 290 290 290 289 288 286 284
263 263 263 263 264 264 264 264 265 267 269 271 272 274 275 277 279 281 282 283 284 286 287 288 290 290 290 291 290 290 289 288 288 289 288 287 284 281
264 263 262 262 263 261 262 264 264 265 268 271 272 272 274 276 278 279 280 282 283 284 286 287 288 289 289 289 289 288 288 288 287 287 287 285 283 279
263 262 262 263 263 261 262 263 264 265 267 269 270 272 274 275 276 278 280 282 283 284 285 286 287 287 287 287 287 287 287 287 286 286 286 283 281 279
262 262 261 261 262 262 263 263 263 264 265 267 270 271 273 274 277 278 280 281 283 283 283 285 285 285 285 285 285 285 285 286 286 285 283 282 280 278
261 261 261 259 261 262 263 263 262 264 267 268 270 271 273 274 276 278 280 281 282 282 283 283 283 284 284 284 284 284 285 285 285 284 283 281 279 277
261 261 261 261 261 262 263 264 264 266 268 268 268 270 272 273 275 277 278 280 280 281 282 282 282 283 283 283 283 284 284 284 284 283 281 280 278 276
262 261 261 262 262 262 264 264 265 266 267 269 270 271 271 273 275 277 278 279 279 280 281 281 281 282 282 282 283 283 283 283 282 282 281 279 278 276
262 262 261 262 262 263 263 263 263 265 267 267 268 271 272 274 275 276 278 278 279 280 280 280 281 281 281 281 281 282 282 282 282 281 281 280 278 276
263 261 261 261 262 264 264 264 264 264 265 267 268 270 272 274 275 276 277 278 279 279 280 280 279 279 280 280 279 280 280 280 281 280 280 279 278 276
262 261 260 262 263 264 265 265 265 265 266 267 269 270 271 273 274 275 277 278 279 279 279 279 279 279 279 279 279 279 279 279 279 279 278 278 278 277
262 261 260 261 262 262 263 264 265 265 266 267 268 270 271 272 273 274 276 278 279 279 278 279 279 279 279 279 278 278 278 278 278 279 278 278 278 277
261 260 260 261 262 262 262 263 265 266 266 268 268 270 271 272 273 274 276 277 277 278 279 279 279 278 278 278 278 278 278 278 278 278 279 278 277 277
259 259 260 261 263 263 263 263 264 265 266 267 268 269 270 271 272 274 275 276 277 278 278 278 278 278 278 278 278 278 278 278 278 278 279 278 277 276
260 260 260 260 261 261 262 263 264 266 267 267 268 268 270 271 272 273 275 275 276 277 277 278 278 278 278 278 278 278 278 278 278 278 278 278 278 277
260 261 260 260 261 261 263 263 264 265 266 267 268 269 270 271 272 273 274 275 276 276 277 277 277 278 277 277 277 277 277 278 278 278 278 278 278 277
260 260 259 260 260 261 263 263 264 265 266 267 268 269 271 272 272 273 274 275 275 275 276 277 278 278 277 277 276 276 277 278 279 279 278 277 277 277
259 259 259 260 261 262 264 265 265 266 267 268 270 271 272 273 274 274 275 275 275 276 276 277 277 277 277 277 277 277 277 278 279 279 278 278 277 277
259 260 259 260 261 263 264 265 265 266 268 269 270 272 273 274 275 275 276 276 276 276 277 277 277 276 276 277 277 277 278 278 278 279 279 279 278 278